GCI weather

Guernsey Airport
Saint Peter Port, Guernsey

Public forecast

Using degrees Celsius for public forecast. Weather courtesy of forecast.io.

Current aviation weather report (METAR) for Guernsey Airport

Retrieved 2020/02/24 21:20 UTC (17 minutes ago):

EGJB 242120Z 28015KT 9999 FEW004 SCT018 BKN030 09/07 Q1011

Closest aviation forecast (TAF) to Guernsey Airport

Forecast is more than 12 hours old.

Closest forecast is Lannion-Côte de Granit Airport, 53.3 nm (98.7 km) SW. Retrieved 2019/05/15 19:06 UTC (10 months ago):

TAF LFRO 151936Z 1519/1612 CNL